User: anonymous   Login
Location: Bothwell
(42.3833°S, 147.0000°E)
Time: 14:53:42
(UTC+11:00)
Language:

CAS-4A - Orbit

View from above orbital plane
View from above orbital plane
View from above satellite
View from above satellite

Ground track
Ground track

The orbit data is extracted from the following two-line orbital elements,

1 42761U 17034D   23334.81491388  .00019354  00000-0  85325-3 0  9990
2 42761  43.0136 265.4478 0010576 112.9853 247.2113 15.21419426356989
Epoch (UTC): 30 November 2023 19:33:28
Eccentricity: 0.0010576
inclination: 43.0136°
perigee height: 494 km
apogee height: 509 km
right ascension of ascending node: 265.4478°
argument of perigee: 112.9853°
revolutions per day: 15.21419426
mean anomaly at epoch: 247.2113°
orbit number at epoch: 35698

The dashed part of the orbit path shows where the satellite is in the earth's shadow,  

DLR